Weather History for Iron Mountain, MI

Change the Weather History Date:

Friday, January 3, 2014

  Actual Average Record
Temperature  
Mean Temperature -4 °F -  
Max Temperature 16 °F 23 °F 44 °F (2007)
Min Temperature -22 °F 4 °F -22 °F (2014)
Degree Days  
Heating Degree Days 68    
Moisture  
Dew Point -7 °F    
Average Humidity 69    
Maximum Humidity 79    
Minimum Humidity 58    
Precipitation  
Precipitation 0.00 in - - ()
Sea Level Pressure  
Sea Level Pressure 30.02 in    
Wind  
Wind Speed 7 mph (South)    
Max Wind Speed 20 mph    
Max Gust Speed 29 mph    
Visibility 8 miles    
Events Snow    
Averages and records for this station are not official NWS values.
T = Trace of Precipitation, MM = Missing Value Source: NWS Daily Summary

Daily Weather History Graph

Daily Weather History Graph

Search for Another Location

Airport:

Trip Planner

Search our weather history database for the weather conditions in past years. The results will help you decide how hot, cold, wet, or windy it might be!

Date:

Astronomy

Jan. 03, 2014 Rise Set
Actual Time 7:33 AM CST 4:20 PM CST
Civil Twilight 6:59 AM CST 4:54 PM CST
Nautical Twilight 6:21 AM CST 5:32 PM CST
Astronomical Twilight 5:45 AM CST 6:08 PM CST
Moon 8:50 AM CST (1/3) 7:40 PM CST (1/3)
Length of Visible Light 9h 55m
Length of Day
8h 46m
Waxing Crescent, 8% of the Moon is Illuminated
Jan 3
Waxing Crescent
Jan 7
First Quarter
Jan 15
Full
Jan 23
Last Quarter
Jan 30
New

Hourly Weather History & Observations

Time (CST) Temp. Windchill Dew Point Humidity Pressure Visibility Wind Dir Wind Speed Gust Speed Precip Events Conditions
12:54 AM -18.0 °F - -24.0 °F 74% 30.41 in 10.0 mi Calm Calm - N/A   Clear
1:54 AM -18.9 °F - -25.1 °F 74% 30.41 in 10.0 mi Calm Calm - N/A   Clear
2:54 AM -20.9 °F - -27.0 °F 73% 30.40 in 10.0 mi Calm Calm - N/A   Clear
3:54 AM -22.0 °F - -29.0 °F 70% 30.39 in 10.0 mi Calm Calm - N/A   Clear
4:54 AM -20.9 °F - -27.0 °F 73% 30.35 in 10.0 mi Calm Calm - N/A   Clear
5:54 AM -20.0 °F - -25.1 °F 78% 30.36 in 10.0 mi Calm Calm - N/A   Clear
6:54 AM -16.1 °F - -20.9 °F 79% 30.33 in 10.0 mi Calm Calm - N/A   Partly Cloudy
7:54 AM -13.0 °F - -18.0 °F 78% 30.30 in 10.0 mi Calm Calm - N/A   Partly Cloudy
8:54 AM -2.9 °F -16.5 °F -9.0 °F 75% 30.27 in 10.0 mi SSE 6.9 mph - N/A   Mostly Cloudy
9:54 AM 1.0 °F -18.7 °F -7.1 °F 69% 30.24 in 10.0 mi South 16.1 mph 20.7 mph N/A   Clear
10:54 AM 5.0 °F -10.8 °F -5.1 °F 63% 30.17 in 10.0 mi South 11.5 mph - N/A   Overcast
11:54 AM 6.1 °F -13.3 °F -6.0 °F 58% 30.11 in 10.0 mi SSW 18.4 mph - N/A   Overcast
12:54 PM 6.1 °F -10.9 °F -5.1 °F 60% 30.05 in 10.0 mi SSE 13.8 mph 21.9 mph N/A   Overcast
1:54 PM 7.0 °F -8.3 °F -5.1 °F 58% 30.00 in 3.0 mi SSE 11.5 mph 20.7 mph 0.00 in Snow Light Snow
1:56 PM 6.8 °F -10.0 °F -4.0 °F 61% 29.88 in 2.5 mi SSE 13.8 mph 20.7 mph 0.00 in Snow Light Snow
2:05 PM 6.8 °F -9.3 °F -2.2 °F 67% 29.88 in 1.0 mi SSE 12.7 mph - 0.00 in Snow Light Snow
2:22 PM 6.8 °F -10.0 °F -2.2 °F 67% 29.86 in 3.0 mi SSE 13.8 mph - 0.00 in Snow Light Snow
2:30 PM 6.8 °F -10.0 °F -2.2 °F 67% 29.85 in 2.0 mi SSE 13.8 mph 20.7 mph 0.00 in Snow Light Snow
2:43 PM 6.8 °F -9.3 °F -2.2 °F 67% 29.85 in 2.0 mi SSE 12.7 mph 20.7 mph 0.00 in Snow Light Snow
2:54 PM 7.0 °F -9.8 °F -2.0 °F 67% 29.94 in 3.0 mi SSE 13.8 mph 25.3 mph 0.00 in Snow Light Snow
3:54 PM 8.1 °F -9.6 °F -0.9 °F 67% 29.91 in 10.0 mi SSE 16.1 mph 24.2 mph 0.00 in   Overcast
4:54 PM 9.0 °F -10.0 °F -0.0 °F 67% 29.83 in 8.0 mi South 19.6 mph 27.6 mph N/A   Overcast
5:04 PM 8.6 °F -8.9 °F -0.4 °F 67% 29.72 in 7.0 mi South 16.1 mph 28.8 mph N/A   Overcast
5:54 PM 10.9 °F -5.4 °F 1.9 °F 67% 29.82 in 10.0 mi South 15.0 mph 24.2 mph N/A   Overcast
6:54 PM 12.0 °F -2.7 °F 3.0 °F 67% 29.79 in 9.0 mi South 12.7 mph 26.5 mph N/A   Overcast
7:54 PM 12.9 °F -3.9 °F 3.9 °F 67% 29.75 in 10.0 mi South 17.3 mph 23.0 mph N/A   Overcast
8:54 PM 12.9 °F -3.9 °F 5.0 °F 71% 29.72 in 10.0 mi South 17.3 mph 26.5 mph 0.00 in   Overcast
9:54 PM 14.0 °F -0.2 °F 6.1 °F 71% 29.69 in 10.0 mi South 12.7 mph - N/A   Overcast
10:54 PM 15.1 °F -1.1 °F 8.1 °F 74% 29.65 in 10.0 mi South 17.3 mph 25.3 mph 0.00 in   Overcast
11:54 PM 16.0 °F 0.1 °F 8.1 °F 71% 29.61 in 10.0 mi South 17.3 mph 23.0 mph N/A   Overcast